Darstellungsparameter: Aktuell verwendete Einstellungen:
Skalierung der Graphiken ... ?
xyx+y,   Skalierungsfaktor:      Skalierung: Modus: x, Faktor: 1
Darstellungszeitraum ... ?
Vom - - bis: - -   Zeitraum: 25.04.2010 - 24.04.2020
Min/Max/Avg-Anzeige ... ?
Zeige MMA aktuell
Zeige MMA Monat
Zeige MMA alles
Zeige --A aktuell
Zeige --A Monat
Zeige --A alles
Keine MMA-Anzeige
MMA:
Keine MMA-Graphiken
MMA-Basis: 25.04.2010 - 24.04.2020
Quicknavigation für Darstellung... ?
Tage:      1T, 2T, 3T, 5T -1T -2T -3T -5T +1T +2T +3T +5T
Wochen: 1W, 2W, 3W -1W -2W -3W +1W +2W +3W
Monate: 1M, 3M, 6M -1M -3M -6M +1M +3M +6M
Jahre:    1J, 3J, 5J, 10J -1J -3J -5J -10J +1J +3J +5J +10J
Nutze für die Darstellung ... ?
Originaldaten oder ...
Mittelwerte Minima Maxima auf...
Stundenbasis Tagesbasis Wochenbasis
Monatsbasis Jahresbasis      Datenbasis: Minima auf Monatsbasis
Darstellen als:
Statistik (Auto) Statistik J:M      Darstellung:
Zur Graphik,    zurück zur Übersicht aller Sensoren.
 
Tabellarische Datenbersicht: ?
 
Sensor: Nr:Datum:Temp:Feuchte:
Aussen-T/F 1 01-04-2010 00:00:00 -1 C 20 %
2 01-05-2010 00:00:00 2.5 C 20 %
3 01-06-2010 00:00:00 8.5 C 20 %
4 01-07-2010 00:00:00 9.9 C 20 %
5 01-08-2010 00:00:00 9 C 20 %
6 01-09-2010 00:00:00 5.5 C 20 %
7 01-10-2010 00:00:00 -1.1 C 20 %
8 01-11-2010 00:00:00 -4.7 C 45 %
9 01-12-2010 00:00:00 -10.7 C 42 %
10 01-01-2011 00:00:00 -9.3 C 46 %
11 01-02-2011 00:00:00 -9.5 C 20 %
12 01-03-2011 00:00:00 -6.9 C 20 %
13 01-04-2011 00:00:00 -0.4 C 20 %
14 01-05-2011 00:00:00 -0.9 C 20 %
15 01-06-2011 00:00:00 6.7 C 20 %
16 01-07-2011 00:00:00 8.2 C 20 %
17 01-08-2011 00:00:00 6.3 C 20 %
18 01-09-2011 00:00:00 5.5 C 20 %
19 01-10-2011 00:00:00 -2.1 C 27 %
20 01-11-2011 00:00:00 -3.5 C 51 %
21 01-12-2011 00:00:00 -3.7 C 46 %
22 01-01-2012 00:00:00 -5.8 C 56 %
23 01-02-2012 00:00:00 -15.3 C 29 %
24 01-03-2012 00:00:00 -1.6 C 20 %
25 01-04-2012 00:00:00 -1.7 C 24 %
Sensor: Nr:Datum:Temp:Feuchte:
Aussen-T/F 26 01-05-2012 00:00:00 1.4 C 25 %
27 01-06-2012 00:00:00 8.4 C 37 %
28 01-07-2012 00:00:00 7.8 C 31 %
29 01-08-2012 00:00:00 9.7 C 25 %
30 01-09-2012 00:00:00 4.1 C 26 %
31 01-10-2012 00:00:00 -3.3 C 45 %
32 01-11-2012 00:00:00 -1.8 C 58 %
33 01-12-2012 00:00:00 -8.6 C 64 %
34 01-01-2013 00:00:00 -6.4 C 69 %
35 01-02-2013 00:00:00 -6.4 C 51 %
36 01-03-2013 00:00:00 -9.1 C 33 %
37 01-04-2013 00:00:00 -3.8 C 31 %
38 01-05-2013 00:00:00 2.6 C 31 %
39 01-06-2013 00:00:00 6.9 C 31 %
40 01-07-2013 00:00:00 10.4 C 27 %
41 01-08-2013 00:00:00 8.6 C 28 %
42 01-09-2013 00:00:00 5.6 C 47 %
43 01-10-2013 00:00:00 2.4 C 55 %
44 01-11-2013 00:00:00 -0.8 C 70 %
45 01-12-2013 00:00:00 -2.1 C 50 %
46 01-01-2014 00:00:00 -1.7 C 68 %
47 01-02-2014 00:00:00 -2 C 49 %
48 01-03-2014 00:00:00 -0.9 C 21 %
49 01-04-2014 00:00:00 1.3 C 29 %
50 01-05-2014 00:00:00 1.9 C 29 %
Sensor: Nr:Datum:Temp:Feuchte:
Aussen-T/F 51 01-06-2014 00:00:00 6.8 C 31 %
52 01-07-2014 00:00:00 8.6 C 21 %
53 01-08-2014 00:00:00 7.9 C 40 %
54 01-09-2014 00:00:00 6.7 C 49 %
55 01-10-2014 00:00:00 4.8 C 64 %
56 01-11-2014 00:00:00 1.3 C 73 %
57 01-12-2014 00:00:00 -5.3 C 63 %
58 01-01-2015 00:00:00 -2.9 C 56 %
59 01-02-2015 00:00:00 -5.1 C 53 %
60 01-03-2015 00:00:00 -1.6 C 42 %
61 01-04-2015 00:00:00 -0.7 C 24 %
62 01-05-2015 00:00:00 2.8 C 27 %
63 01-06-2015 00:00:00 7.4 C 22 %
64 01-07-2015 00:00:00 8 C 18 %
65 01-08-2015 00:00:00 9.9 C 23 %
66 01-09-2015 00:00:00 5.5 C 46 %
67 01-10-2015 00:00:00 0.4 C 48 %
68 01-11-2015 00:00:00 -0.4 C 66 %
69 01-12-2015 00:00:00 -0.4 C 69 %
70 01-01-2016 00:00:00 -7.7 C 56 %
71 01-02-2016 00:00:00 -2.8 C 53 %
72 01-03-2016 00:00:00 -3.6 C 38 %
73 01-04-2016 00:00:00 0.5 C 27 %
74 01-05-2016 00:00:00 1.9 C 26 %
75 01-06-2016 00:00:00 7.6 C 40 %
Sensor: Nr:Datum:Temp:Feuchte:
Aussen-T/F 76 01-07-2016 00:00:00 10.6 C 40 %
77 01-08-2016 00:00:00 6.8 C 34 %
78 01-09-2016 00:00:00 6.4 C 37 %
79 01-10-2016 00:00:00 3.9 C 58 %
80 01-11-2016 00:00:00 -5.9 C 69 %
81 01-12-2016 00:00:00 -6.3 C 75 %
82 01-01-2017 00:00:00 -10.6 C 63 %
83 01-02-2017 00:00:00 -2.8 C 51 %
84 01-03-2017 00:00:00 -0.1 C 22 %
85 01-04-2017 00:00:00 -2 C 31 %
86 01-05-2017 00:00:00 1.8 C 24 %
87 01-06-2017 00:00:00 9.4 C 27 %
88 01-07-2017 00:00:00 9.7 C 31 %
89 01-08-2017 00:00:00 9.7 C 36 %
90 01-09-2017 00:00:00 6.2 C 55 %
91 01-10-2017 00:00:00 2.9 C 58 %
92 01-11-2017 00:00:00 0.4 C 70 %
93 01-12-2017 00:00:00 -0.8 C 70 %
94 01-01-2018 00:00:00 -1.2 C 58 %
95 01-02-2018 00:00:00 -10.4 C 32 %
96 01-03-2018 00:00:00 -6.8 C 36 %
97 01-04-2018 00:00:00 0.2 C 23 %
98 01-05-2018 00:00:00 1.9 C 27 %
99 01-06-2018 00:00:00 8.4 C 26 %
100 01-07-2018 00:00:00 10.7 C 18 %
Sensor: Nr:Datum:Temp:Feuchte:
Aussen-T/F 101 01-08-2018 00:00:00 6.8 C 23 %
102 01-09-2018 00:00:00 1.7 C 31 %
103 01-10-2018 00:00:00 3.1 C 55 %
104 01-11-2018 00:00:00 -2.9 C 57 %
105 01-12-2018 00:00:00 -2.1 C 72 %
106 01-01-2019 00:00:00 -8.8 C 72 %
107 01-02-2019 00:00:00 -2.7 C 34 %
108 01-03-2019 00:00:00 -1.3 C 32 %
109 01-04-2019 00:00:00 0.3 C 21 %
110 01-05-2019 00:00:00 2.2 C 27 %
111 01-06-2019 00:00:00 8.4 C 21 %
112 01-07-2019 00:00:00 8.1 C 19 %
113 01-08-2019 00:00:00 9.6 C 30 %
114 01-09-2019 00:00:00 4 C 28 %
115 01-10-2019 00:00:00 -0.8 C 59 %
116 01-11-2019 00:00:00 -1.5 C 66 %
117 01-12-2019 00:00:00 -3.6 C 70 %
118 01-01-2020 00:00:00 -3.3 C 63 %
119 01-02-2020 00:00:00 -1.8 C 51 %
120 01-03-2020 00:00:00 -3.5 C 22 %
121 01-04-2020 00:00:00 -3.4 C 23 %

Maximal/Minimal-Werte vom 25.04.2010 - 24.04.2020

Sensor Min Max Avg
Temp
(Aussen-T/F)
-15.3 °C
07-02-2012  08:00:00
40.4 °C
25-07-2019  16:20:00
10.94 °C
Feuchte
(Aussen-T/F)
18 %
17-07-2015  15:55:00
100 %
07-10-2012  03:05:00
81.47 %

Warnung:
When displaying minima or maxima values for days, weeks, months or years no virtual sensors will be displayed.



Die Daten stammen von einer Davis Vantage Pro 2 Wetter-Station und werden unter Linux mit der Software wview2wettercgi und aufbereitet. Alle Angaben erfolgen ohne Gewähr für ihre Vollständigkeit oder Richtigkeit.
Kontakt: Rainer Krienke krienke@uni-koblenz.de . Meine Webseiten an der Uni Koblenz oder privat.
Version: $Revision: 0.78 $